Zurück zum Katalog

KUIPER-00042

AktivKommunikationLEO
NORAD 64503·PAYLOAD·🇺🇸 United States

Gestartet Jun 23, 2025 von Cape Canaveral Space Force Station

Loading…

Nächste Überflüge (nächste 24 Stunden)

TLE

AktuellSource: CelesTrak SupGP

Epoche: Sep 15, 2026, 02:53 UTC

1 64503C 25134D   26258.12060185  .00005551  00000+0  72679-3 0  2586
2 64503  51.8971 122.8844 0000788 103.6669 128.1444 14.79913731    14

Verfolge KUIPER-00042 in Echtzeit mit AllMySat

Download on the App Store